DELTA 1 DEB, 28266

Orbit data source: Space-Track

DELTA 1 DEB, 28266 is space debris in LEO originally from a launch on Thu, 04 Jul 1968 UTC launched from the Air Force Western Test Range (AFWTR). Debris objects in space refer to the collection of defunct objects orbiting the Earth. Examples of debris include non-operational satellites, rocket bodies, and fragments generated from explosions, collisions, or faulty payload assembly.

Loading next visibility...
Identifier
28266, 1968-055L
Orbit
LEO
Country
Flag of USUS
Related business
Manufacturer
Unknown
Mission
Spacecraft
Bus & Motor
Unknown
Mass
Unknown
Launch date (UTC)
1968-07-04 (57 years ago)
Launch vehicle
Unknown
Launch site
Air Force Western Test Range (AFWTR)
Object type
Payload
Rocket body
Debris
Shape & HBR
Unknown
Radar Cross Section
Small (<0.1 m²)

Expand to show TLE details & history
Last TLE update: 9 months ago

TLE from 9 months ago
0 DELTA 1 DEB
1 28266U 68055L   24346.84198036  .00004802  00000-0  11326-1 0  9994
2 28266 120.6727  23.3688 1757906 196.3028 157.3391 10.77470328460856
Epoch: 2024-12-11T20:12Z
TLE epoch observation values (Epoch: 2024-12-11T20:12:27.103Z)
Latitude
0.00002°
Longitude
-0.77501°
Altitude
3,718.497 km
Speed
5.74 km/s
True Right ascension
01h 33m 28s
True Declination
0° 00' 00"
Sunlit
Object was in daylight at epoch
Visualization orbit readout
Latitude
Unknown
Longitude
Unknown
Altitude
Unknown
Speed
Unknown
Apparent Right ascension
Unknown
Apparent Declination
Unknown
Sunlit
N/A
Visualization observer readout
Local Sidereal Time
15:21:04
Azimuth
Unknown
Elevation
Unknown
Doppler factor
Unknown
Orbital elements
Apogee altitude
3,802.288 km
Perigee altitude
758.169 km
Semi-major axis
8,658.365 km
Eccentricity
0.17579
Inclination
120.6727°
RAAN
23.3688°
Arg. of periapsis
196.3028°
True anomaly
163.77234°
Mean anomaly
157.3391°
Eccentric anomaly
160.67261°
Mean motion
2.69395 °/min
Orbital period
133.63 mins
BSTAR
0.011326
Loading maneuver chart data...
Computing Atmospheric mass density...
Loading historical data...
Loading historical data...
Loading historical data...
Loading historical data...
Loading historical data...
Loading historical data...
Loading historical data...

Documentation

Showing up to 5 results
|